Location: Amarillo Post Office Jordan Station
(35.1907°N, 101.9342°W)
Time: 11:46:12
(UTC+00:00)

Cosmos 1689 Rocket - Pass Details

Date: 24 January 2021
Orbit: 352 x 366 km, 97.5° (Epoch: 04 March)

Event Time Altitude Azimuth Distance (km) Brightness Sun altitude
Rises 12:01:37 0° 142° (SE) 2,224 6.6 -22.5°
Reaches altitude 10° 12:03:48 10° 127° (SE) 1,376 5.7 -22.1°
Maximum altitude 12:06:10 22° 73° (ENE) 871 4.5 -21.6°
Drops below altitude 10° 12:08:31 10° 19° (NNE) 1,378 5.0 -21.1°
Enters shadow 12:08:49 - 16° (NNE) 1,484 5.1 -21.0°
